EW4096 Weather Reports


Display with metric or nautical units.
time (UTC)temp
F
wind
direction
speed
MPH
gust
MPH
rain 1hr
in
rain 24hr
in
rain mn
in
humidity
%
barometer
mb
20260506024157 70 238 0.0 0.0 0.00 0.00 0.00 44 1008.3
20260506024151 69 232 0.0 0.0 0.00 0.00 0.00 45 1008.4
20260506023651 70 237 0.0 0.0 0.00 0.00 0.00 45 1008.4
20260506022655 70 240 0.0 0.0 0.00 0.00 0.00 44 1008.3
20260506022651 70 239 0.0 0.0 0.00 0.00 0.00 44 1008.3
20260506021649 70 240 0.0 0.0 0.00 0.00 0.00 43 1008.3
20260506021149 70 240 0.0 0.0 0.00 0.00 0.00 42 1008.4
20260506020650 71 206 0.0 0.0 0.00 0.00 0.00 42 1008.4
20260506020148 71 206 0.0 0.0 0.00 0.00 0.00 41 1008.4
20260506015647 71 205 0.0 0.0 0.00 0.00 0.00 41 1008.3
20260506015153 72 205 0.0 0.0 0.00 0.00 0.00 40 1008.2
20260506014647 72 205 0.0 0.0 0.00 0.00 0.00 39 1008.1
20260506014147 72 205 0.0 0.0 0.00 0.00 0.00 39 1008.2
20260506013652 73 205 0.0 0.0 0.00 0.00 0.00 37 1008.0
20260506013648 72 205 0.0 0.0 0.00 0.00 0.00 39 1008.1
20260506012651 73 183 0.0 0.0 0.00 0.00 0.00 37 1007.9
20260506012647 73 205 0.0 0.0 0.00 0.00 0.00 37 1008.0
20260506012251 74 194 0.0 0.0 0.00 0.00 0.00 36 1007.8
20260506011751 74 161 0.0 0.0 0.00 0.00 0.00 36 1007.8
20260506010651 74 205 0.0 0.0 0.00 0.00 0.00 35 1007.8
20260506010647 74 184 0.0 0.0 0.00 0.00 0.00 35 1007.8
20260506005647 74 215 0.0 0.0 0.00 0.00 0.00 35 1007.7
20260506005147 74 226 0.0 0.0 0.00 0.00 0.00 36 1007.7
20260506004647 74 220 0.0 0.0 0.00 0.00 0.00 35 1007.6
20260506004147 74 182 0.0 0.0 0.00 0.00 0.00 35 1007.6
20260506003653 74 198 0.0 0.0 0.00 0.00 0.00 36 1007.4
20260506003647 74 245 0.0 0.0 0.00 0.00 0.00 36 1007.5
20260506003147 74 198 0.0 0.0 0.00 0.00 0.00 36 1007.5
20260506002145 74 241 0.0 0.0 0.00 0.00 0.00 35 1007.4
20260506001645 75 195 0.0 0.0 0.00 0.00 0.00 35 1007.2
20260506001145 75 190 0.0 0.0 0.00 0.00 0.00 36 1007.2
20260506000645 75 188 0.0 0.0 0.00 0.00 0.00 36 1007.2
20260506000145 75 169 0.0 0.0 0.00 0.00 0.00 37 1007.2
20260505235645 76 172 0.0 0.0 0.00 0.00 0.00 36 1007.1
20260505235150 77 115 0.0 0.0 0.00 0.00 0.00 35 1007.1
20260505235145 76 111 0.0 0.0 0.00 0.00 0.00 36 1007.1
20260505234645 76 163 0.0 0.0 0.00 0.00 0.00 37 1007.1
20260505233644 77 182 0.0 0.0 0.00 0.00 0.00 35 1007.1
20260505233147 77 216 0.0 9.0 0.00 0.00 0.00 36 1007.1
20260505233143 77 138 0.0 0.0 0.00 0.00 0.00 35 1007.1
20260505232143 78 190 0.0 9.0 0.00 0.00 0.00 35 1007.1
20260505231652 78 130 0.0 0.0 0.00 0.00 0.00 35 1006.9
20260505231648 78 157 0.0 1.0 0.00 0.00 0.00 34 1007.0
20260505230643 78 160 0.0 0.0 0.00 0.00 0.00 35 1007.0
20260505230143 79 136 0.0 0.0 0.00 0.00 0.00 34 1006.9
20260505225643 79 261 0.0 0.0 0.00 0.00 0.00 34 1007.0
20260505225143 79 207 0.0 0.0 0.00 0.00 0.00 36 1006.9
20260505224642 79 172 0.0 1.0 0.00 0.00 0.00 35 1006.9
20260505224145 78 136 0.0 0.0 0.00 0.00 0.00 36 1006.9
20260505224141 79 108 0.0 1.0 0.00 0.00 0.00 37 1006.9
20260505223141 78 190 0.0 0.0 0.00 0.00 0.00 35 1006.9
20260505222641 78 131 0.0 0.0 0.00 0.00 0.00 35 1007.1
20260505222145 79 135 0.0 0.0 0.00 0.00 0.00 35 1007.0
20260505222140 79 81 0.0 0.0 0.00 0.00 0.00 35 1007.1
20260505221141 79 323 0.0 0.0 0.00 0.00 0.00 36 1007.1
20260505220640 79 197 0.0 0.0 0.00 0.00 0.00 35 1007.2
20260505220145 79 246 0.0 0.0 0.00 0.00 0.00 36 1007.1
20260505220141 79 126 0.0 1.0 0.00 0.00 0.00 36 1007.1
20260505215640 79 183 0.0 1.0 0.00 0.00 0.00 37 1007.1
20260505214641 79 71 0.0 0.0 0.00 0.00 0.00 35 1007.0
20260505214138 79 286 0.0 0.0 0.00 0.00 0.00 35 1007.1
20260505213639 79 113 0.0 0.0 0.00 0.00 0.00 34 1007.0
20260505213139 80 86 0.0 0.0 0.00 0.00 0.00 34 1007.0
20260505212639 80 190 0.0 0.0 0.00 0.00 0.00 35 1007.0
20260505212143 81 327 0.0 1.0 0.00 0.00 0.00 35 1006.9
20260505212139 80 190 0.0 1.0 0.00 0.00 0.00 34 1006.9
20260505211137 81 143 0.0 1.0 0.00 0.00 0.00 36 1006.9
20260505210637 81 91 0.0 8.0 0.00 0.00 0.00 35 1006.8
20260505210142 81 154 1.0 7.0 0.00 0.00 0.00 34 1006.8
20260505210138 81 146 1.0 8.0 0.00 0.00 0.00 35 1006.7
20260505205136 82 227 0.0 6.0 0.00 0.00 0.00 36 1006.7
20260505204637 82 130 0.0 0.0 0.00 0.00 0.00 35 1006.8
20260505204135 82 109 0.0 0.0 0.00 0.00 0.00 36 1006.8
20260505203634 82 221 0.0 0.0 0.00 0.00 0.00 35 1006.8
20260505203135 83 173 0.0 0.0 0.00 0.00 0.00 36 1006.7
20260505202635 83 190 0.0 0.0 0.00 0.00 0.00 37 1006.7
20260505202132 82 146 0.0 0.0 0.00 0.00 0.00 35 1006.7
20260505201633 82 132 0.0 3.0 0.00 0.00 0.00 36 1006.6
20260505201137 83 279 0.0 10.0 0.00 0.00 0.00 36 1006.8
20260505201132 83 126 0.0 3.0 0.00 0.00 0.00 34 1006.7
20260505200131 83 240 0.0 10.0 0.00 0.00 0.00 36 1006.7
20260505195630 83 161 0.0 3.0 0.00 0.00 0.00 39 1006.8
20260505195131 83 225 0.0 3.0 0.00 0.00 0.00 39 1006.9
20260505194636 83 145 0.0 5.0 0.00 0.00 0.00 40 1007.1
20260505194631 83 134 0.0 2.0 0.00 0.00 0.00 37 1006.9
20260505194130 83 154 0.0 5.0 0.00 0.00 0.00 42 1007.0
20260505193134 83 119 0.0 1.0 0.00 0.00 0.00 38 1007.3
20260505193130 83 243 0.0 4.0 0.00 0.00 0.00 40 1007.2
20260505192134 82 106 0.0 9.0 0.00 0.00 0.00 39 1007.4
20260505192130 83 14 0.0 9.0 0.00 0.00 0.00 40 1007.3
20260505191131 82 123 0.0 1.0 0.00 0.00 0.00 39 1007.5
20260505190631 82 133 0.0 0.0 0.00 0.00 0.00 39 1007.6
20260505190130 82 109 0.0 0.0 0.00 0.00 0.00 40 1007.6
20260505185635 82 128 0.0 0.0 0.00 0.00 0.00 37 1007.9
20260505185630 82 142 0.0 0.0 0.00 0.00 0.00 39 1007.8
20260505184636 82 144 0.0 0.0 0.00 0.00 0.00 40 1007.9
20260505184131 82 138 0.0 8.0 0.00 0.00 0.00 39 1007.9
20260505183630 81 253 0.0 8.0 0.00 0.00 0.00 39 1008.0
20260505183130 81 171 0.0 4.0 0.00 0.00 0.00 43 1008.1
20260505182631 81 329 0.0 4.0 0.00 0.00 0.00 39 1008.2
20260505182130 81 178 0.0 1.0 0.00 0.00 0.00 40 1008.0
20260505181635 81 142 0.0 0.0 0.00 0.00 0.00 38 1008.3
20260505181631 80 163 0.0 0.0 0.00 0.00 0.00 39 1008.2
20260505180626 81 136 0.0 0.0 0.00 0.00 0.00 41 1008.3
20260505180127 81 109 0.0 0.0 0.00 0.00 0.00 39 1008.4
20260505175624 81 159 0.0 4.0 0.00 0.00 0.00 41 1008.4
20260505175124 81 123 0.0 4.0 0.00 0.00 0.00 41 1008.5
20260505174625 81 260 0.0 1.0 0.00 0.00 0.00 43 1008.6
20260505174124 80 213 0.0 1.0 0.00 0.00 0.00 40 1008.6
20260505173624 80 148 0.0 4.0 0.00 0.00 0.00 42 1008.7
20260505173125 80 228 0.0 4.0 0.00 0.00 0.00 40 1008.6
20260505172624 80 171 0.0 0.0 0.00 0.00 0.00 42 1008.6
20260505172124 80 226 0.0 0.0 0.00 0.00 0.00 40 1008.7
20260505171625 80 143 0.0 0.0 0.00 0.00 0.00 40 1008.8
20260505171125 80 145 0.0 3.0 0.00 0.00 0.00 42 1008.8
20260505170628 80 254 0.0 3.0 0.00 0.00 0.00 40 1008.9
20260505170624 80 254 0.0 3.0 0.00 0.00 0.00 43 1008.8
20260505170229 80 215 0.0 3.0 0.00 0.00 0.00 46 1009.0
20260505165122 80 281 0.0 0.0 0.00 0.00 0.00 44 1009.0
20260505164621 80 40 0.0 0.0 0.00 0.00 0.00 44 1009.3
20260505164120 80 138 0.0 0.0 0.00 0.00 0.00 43 1009.2
20260505163621 80 103 0.0 1.0 0.00 0.00 0.00 41 1009.4
20260505163120 79 294 0.0 1.0 0.00 0.00 0.00 42 1009.4
20260505162620 79 243 0.0 0.0 0.00 0.00 0.00 42 1009.5
20260505162120 79 265 0.0 0.0 0.00 0.00 0.00 44 1009.5
20260505161624 79 215 0.0 2.0 0.00 0.00 0.00 41 1009.7
20260505161620 79 252 0.0 2.0 0.00 0.00 0.00 42 1009.7
20260505160621 79 67 0.0 1.0 0.00 0.00 0.00 41 1009.8
20260505160120 79 165 0.0 1.0 0.00 0.00 0.00 43 1009.8
20260505153118 78 247 0.0 2.0 0.00 0.00 0.00 44 1009.9
20260505152618 78 107 0.0 2.0 0.00 0.00 0.00 46 1009.9
20260505152118 77 177 0.0 4.0 0.00 0.00 0.00 45 1009.9
20260505151618 77 260 0.0 4.0 0.00 0.00 0.00 48 1009.9
20260505151118 77 118 0.0 0.0 0.00 0.00 0.00 47 1009.7
20260505150621 77 5 0.0 0.0 0.00 0.00 0.00 45 1009.8
20260505150616 77 254 0.0 0.0 0.00 0.00 0.00 46 1009.8
20260505150220 76 136 0.0 0.0 0.00 0.00 0.00 50 1009.6
20260505140614 71 132 0.0 0.0 0.00 0.00 0.00 60 1010.1
20260505140119 69 200 0.0 0.0 0.00 0.00 0.00 65 1010.2
20260505140113 70 150 0.0 0.0 0.00 0.00 0.00 61 1010.1
20260505130108 65 197 0.0 0.0 0.00 0.00 0.00 70 1010.6
20260505124606 63 223 0.0 0.0 0.00 0.00 0.00 70 1010.8
20260505124103 63 248 0.0 0.0 0.00 0.00 0.00 72 1010.8
20260505123603 63 254 0.0 0.0 0.00 0.00 0.00 71 1010.9
20260505123106 62 213 0.0 1.0 0.00 0.00 0.00 71 1010.8
20260505123102 62 254 0.0 0.0 0.00 0.00 0.00 70 1010.8
20260505122102 61 236 0.0 1.0 0.00 0.00 0.00 72 1010.8
20260505121602 61 189 0.0 1.0 0.00 0.00 0.00 73 1010.9
20260505121101 60 215 0.0 0.0 0.00 0.00 0.00 75 1010.8
20260505120606 58 267 0.0 0.0 0.00 0.00 0.00 79 1010.9
20260505120602 59 203 0.0 0.0 0.00 0.00 0.00 77 1010.9
20260505115601 58 134 0.0 0.0 0.00 0.00 0.00 80 1010.8
20260505115106 57 135 0.0 0.0 0.00 0.00 0.00 81 1010.8
20260505115102 57 134 0.0 0.0 0.00 0.00 0.00 81 1010.8
20260505114101 56 135 0.0 0.0 0.00 0.00 0.00 81 1010.7
20260505113602 56 130 0.0 0.0 0.00 0.00 0.00 81 1010.6
20260505113101 56 130 0.0 0.0 0.00 0.00 0.00 81 1010.6
20260505112601 56 145 0.0 0.0 0.00 0.00 0.00 81 1010.5
20260505112102 56 122 0.0 0.0 0.00 0.00 0.00 81 1010.5
20260505111605 56 109 0.0 0.0 0.00 0.00 0.00 81 1010.3
20260505111601 56 109 0.0 0.0 0.00 0.00 0.00 81 1010.5
20260505110601 56 109 0.0 0.0 0.00 0.00 0.00 81 1010.3
20260505101600 56 225 0.0 0.0 0.00 0.00 0.00 80 1009.7
20260505101103 56 225 0.0 0.0 0.00 0.00 0.00 80 1009.6
20260505101100 56 225 0.0 0.0 0.00 0.00 0.00 80 1009.7
20260505100100 56 225 0.0 0.0 0.00 0.00 0.00 79 1009.6
20260505095559 56 225 0.0 0.0 0.00 0.00 0.00 79 1009.6
20260505095109 56 225 0.0 0.0 0.00 0.00 0.00 78 1009.7
20260505095105 56 225 0.0 0.0 0.00 0.00 0.00 79 1009.6
20260505094103 57 225 0.0 0.0 0.00 0.00 0.00 77 1009.6
20260505094059 57 225 0.0 0.0 0.00 0.00 0.00 78 1009.6
20260505093104 57 225 0.0 0.0 0.00 0.00 0.00 77 1009.4
20260505092559 57 237 0.0 0.0 0.00 0.00 0.00 77 1009.5
20260505092100 57 236 0.0 0.0 0.00 0.00 0.00 76 1009.4
20260505091557 57 236 0.0 0.0 0.00 0.00 0.00 76 1009.5
20260505091101 58 236 0.0 0.0 0.00 0.00 0.00 75 1009.6
20260505091057 58 236 0.0 0.0 0.00 0.00 0.00 75 1009.5
20260505090100 58 237 0.0 0.0 0.00 0.00 0.00 74 1009.6
20260505090056 58 236 0.0 0.0 0.00 0.00 0.00 74 1009.6
20260505085055 59 237 0.0 0.0 0.00 0.00 0.00 73 1009.4
20260505084553 59 236 0.0 0.0 0.00 0.00 0.00 73 1009.5
20260505084052 59 236 0.0 0.0 0.00 0.00 0.00 72 1009.3
20260505083551 60 236 0.0 0.0 0.00 0.00 0.00 72 1009.3
20260505083055 60 238 0.0 0.0 0.00 0.00 0.00 71 1009.1
20260505083051 60 236 0.0 0.0 0.00 0.00 0.00 71 1009.3
20260505082655 60 237 0.0 0.0 0.00 0.00 0.00 72 1009.0
20260505082155 60 252 0.0 0.0 0.00 0.00 0.00 73 1009.1
20260505081051 59 273 0.0 0.0 0.00 0.00 0.00 74 1009.0
20260505080551 58 283 0.0 0.0 0.00 0.00 0.00 74 1009.1
20260505080049 58 256 0.0 0.0 0.00 0.00 0.00 76 1009.1
20260505075558 57 245 0.0 0.0 0.00 0.00 0.00 77 1009.1
20260505075549 57 225 0.0 0.0 0.00 0.00 0.00 76 1009.1
20260505074553 57 219 0.0 0.0 0.00 0.00 0.00 76 1009.1
20260505074549 57 219 0.0 0.0 0.00 0.00 0.00 76 1009.0
20260505073549 58 219 0.0 0.0 0.00 0.00 0.00 76 1009.0
20260505073049 58 219 0.0 0.0 0.00 0.00 0.00 75 1009.1
20260505072553 58 221 0.0 0.0 0.00 0.00 0.00 75 1009.0
20260505072548 58 221 0.0 0.0 0.00 0.00 0.00 75 1009.0
20260505071553 58 221 0.0 0.0 0.00 0.00 0.00 74 1008.9
20260505071549 58 221 0.0 0.0 0.00 0.00 0.00 74 1009.0
20260505070547 58 221 0.0 0.0 0.00 0.00 0.00 74 1008.9
20260505070047 58 221 0.0 0.0 0.00 0.00 0.00 74 1008.9
20260505065547 58 222 0.0 0.0 0.00 0.00 0.00 74 1008.9
20260505065047 58 222 0.0 0.0 0.00 0.00 0.00 74 1009.0
20260505064547 59 222 0.0 0.0 0.00 0.00 0.00 73 1008.9
20260505064052 59 222 0.0 0.0 0.00 0.00 0.00 73 1008.9
20260505063547 58 223 0.0 0.0 0.00 0.00 0.00 73 1009.0
20260505063047 58 222 0.0 0.0 0.00 0.00 0.00 73 1009.0
20260505062546 58 222 0.0 0.0 0.00 0.00 0.00 74 1009.0
20260505062045 58 222 0.0 0.0 0.00 0.00 0.00 74 1009.1
20260505061544 58 223 0.0 0.0 0.00 0.00 0.00 74 1009.1
20260505061045 58 222 0.0 0.0 0.00 0.00 0.00 74 1009.2
20260505060543 58 223 0.0 0.0 0.00 0.00 0.00 74 1009.2
20260505060042 58 222 0.0 0.0 0.00 0.00 0.00 73 1009.1
20260505055543 58 222 0.0 0.0 0.00 0.00 0.00 73 1009.0
20260505055043 59 222 0.0 0.0 0.00 0.00 0.00 72 1009.0
20260505054542 59 222 0.0 0.0 0.00 0.00 0.00 71 1009.0
20260505054043 59 222 0.0 0.0 0.00 0.00 0.00 71 1009.1
20260505053543 60 251 0.0 0.0 0.00 0.00 0.00 70 1009.0
20260505053040 60 251 0.0 0.0 0.00 0.00 0.00 69 1008.8
20260505052541 61 251 0.0 0.0 0.00 0.00 0.00 68 1008.9
20260505052041 61 251 0.0 0.0 0.00 0.00 0.00 67 1009.0
20260505051540 62 251 0.0 0.0 0.00 0.00 0.00 66 1009.0
20260505051041 62 251 0.0 0.0 0.00 0.00 0.00 65 1009.1
20260505050545 63 251 0.0 0.0 0.00 0.00 0.00 63 1009.2
20260505050540 62 251 0.0 0.0 0.00 0.00 0.00 64 1009.2
20260505041540 65 256 0.0 0.0 0.00 0.00 0.00 59 1009.1
20260505041536 65 202 0.0 0.0 0.00 0.00 0.00 59 1009.0
20260505040532 65 243 0.0 0.0 0.00 0.00 0.00 59 1008.9
20260505040032 65 211 0.0 0.0 0.00 0.00 0.00 59 1008.9
20260505035529 65 211 0.0 0.0 0.00 0.00 0.00 59 1008.9
20260505035038 65 247 0.0 0.0 0.00 0.00 0.00 59 1008.9
20260505035028 65 243 0.0 0.0 0.00 0.00 0.00 59 1008.8
20260505034027 65 157 0.0 0.0 0.00 0.00 0.00 58 1008.8
20260505033532 66 248 0.0 0.0 0.00 0.00 0.00 57 1008.8
20260505033528 66 157 0.0 0.0 0.00 0.00 0.00 58 1008.8
20260505032526 66 224 0.0 0.0 0.00 0.00 0.00 57 1008.8
20260505032026 66 217 0.0 0.0 0.00 0.00 0.00 57 1008.9
20260505031526 66 264 0.0 0.0 0.00 0.00 0.00 57 1009.0
20260505031026 66 219 0.0 0.0 0.00 0.00 0.00 57 1009.0
20260505030530 66 182 0.0 0.0 0.00 0.00 0.00 56 1009.0
20260505030525 66 223 0.0 0.0 0.00 0.00 0.00 56 1009.0
20260505025529 67 245 0.0 0.0 0.00 0.00 0.00 56 1009.0
20260505025525 66 205 0.0 0.0 0.00 0.00 0.00 56 1009.0
20260505024526 67 250 0.0 0.0 0.00 0.00 0.00 55 1009.0